Meteo Giornale » Osservazioni meteo Gran Bretagna » Londra-Gatwick AP

ore: 16:50 - Osservazioni Meteo Londra-Gatwick AP
Lat. 51° 9' N Lon. 0° 11' W Alt. 62 metri s.l.m.

nuvoloso Europe/London

9 °C

Nuvoloso

Temp. 24 Ore

3 °C

11 °C

Nord-Est

22.2 Km/h

Dew point 1 °C

Umidità 57 %

Visibilità  10 Km

Il sole sorge alle ore 06:34

Il sole tramonta alle ore 19:34

Data e Ora Cielo e Fenomeni T °C DP °C Um. % Pres. hPa Vis. km Vento km/h
Oggi h: 16:50 nuvoloso Nuvoloso 9 1 57 1029 10 NE 22.2
Oggi h: 16:20 nuvoloso Nuvoloso 9 -0 53 1029 10 NE 22.2
Oggi h: 15:50 nuvoloso Nuvoloso 10 -1 46 1030 10 NE 22.2
Oggi h: 15:20 nuvoloso Nuvoloso 10 -1 46 1030 10 E/NE 24
Oggi h: 14:50 nuvoloso Nuvoloso 10 -1 46 1030 10 NE 25.9
Oggi h: 14:20 nuvoloso Nuvoloso 11 -1 43 1030 10 E/NE 22.2
Oggi h: 13:50 nuvoloso Nuvoloso 10 -2 42 1031 10 E/NE 27.8
Oggi h: 13:20 nuvoloso Nuvoloso 10 -1 46 1031 10 NE 25.9
Oggi h: 12:50 nuvoloso Nuvoloso 10 -1 46 1031 10 E/NE 24
Oggi h: 12:20 nuvoloso Nuvoloso 9 0 53 1031 10 E/NE 25.9
Oggi h: 11:50 nuvoloso Nuvoloso 9 1 57 1031 10 E/NE 25.9
Oggi h: 11:20 nuvoloso Nuvoloso 8 1 61 1031 10 NE 24
Oggi h: 10:50 nuvoloso Nuvoloso 7 2 70 1031 10 NE 27.8
Oggi h: 10:20 nuvoloso Nuvoloso 7 2 70 1032 10 NE 20.3
Oggi h: 09:50 nuvoloso Nuvoloso 7 3 75 1032 10 NE 20.3
Oggi h: 09:20 nuvoloso Nuvoloso 6 3 81 1032 10 NE 16.7
Oggi h: 08:50 nuvoloso Nuvoloso 5 2 80 1032 10 NE 13
Oggi h: 08:20 nuvoloso Nuvoloso 4 2 86 1031 10 N/NE 14.8
Oggi h: 07:20 poco_nuvoloso Poco Nuvoloso 3 1 86 1031 10 N/NE 11.1
Oggi h: 06:20 poco_nuvoloso Poco Nuvoloso 3 1 86 1030 10 N 14.8
Oggi h: 05:50 nuvoloso Rovescio nelle Vicinanze 3 1 86 1030 10 N/NE 14.8
Oggi h: 04:50 poco_nuvoloso Poco Nuvoloso 3 1 86 1031 10 N/NE 13
Oggi h: 04:20 nuvoloso Nuvoloso 3 1 86 1031 10 N/NE 9.3
Oggi h: 03:50 nuvoloso Nuvoloso 4 1 80 1031 10 N/NE 14.8
Oggi h: 03:20 nuvoloso Nuvoloso 4 2 86 1031 10 N/NE 13
Oggi h: 02:50 coperto Coperto 4 2 86 1031 10 N/NE 14.8
Oggi h: 02:20 molto_nuvoloso Molto Nuvoloso 5 2 80 1031 10 N/NE 16.7
Oggi h: 01:50 coperto_pioggia Pioggia 4 2 86 1031 10 N/NE 14.8
Oggi h: 01:20 molto_nuvoloso Molto Nuvoloso 5 2 80 1031 10 N/NE 16.7
Oggi h: 00:50 molto_nuvoloso Molto Nuvoloso 5 2 80 1031 10 N/NE 14.8
Ieri h: 23:50 nuvoloso Nuvoloso 6 1 70 1031 10 NE 20.3
Ieri h: 23:20 nuvoloso Nuvoloso 6 2 75 1031 10 NE 20.3
Ieri h: 22:50 nuvoloso Nuvoloso 7 2 70 1031 10 N/NE 20.3
Ieri h: 22:20 nuvoloso Nuvoloso 7 3 75 1031 10 N/NE 14.8
Ieri h: 21:50 molto_nuvoloso Molto Nuvoloso 7 3 75 1031 10 N/NE 16.7
Ieri h: 21:20 molto_nuvoloso Molto Nuvoloso 7 3 75 1031 10 N/NE 18.5
Ieri h: 20:50 nuvoloso Nuvoloso 7 3 75 1031 10 N/NE 18.5
Ieri h: 20:20 nuvoloso Nuvoloso 7 3 75 1030 10 N 14.8
Ieri h: 19:50 nuvoloso Nuvoloso 7 3 75 1030 10 N/NE 11.1
Ieri h: 19:20 nuvoloso Nuvoloso 7 3 75 1030 10 N/NE 11.1
Ieri h: 18:50 sereno Sereno 7 3 75 1030 10 NE 11.1
Ieri h: 18:20 nuvoloso Nuvoloso 7 3 75 1030 10 NE 11.1
Ieri h: 17:50 poco_nuvoloso Poco Nuvoloso 8 4 75 1030 10 E/NE 13